| time (UTC) | temp F | wind direction | speed knots | gust knots | rain 1hr in | rain 24hr in | rain mn in | humidity % | barometer mb |
| 20260504001019 | 55 | 192 | 4.3 | 8.7 | 0.00 | 0.01 | 0.01 | 56 | 1008.7 |
| 20260504000019 | 55 | 206 | 4.3 | 10.4 | 0.00 | 0.01 | 0.01 | 56 | 1008.7 |
| 20260503235019 | 55 | 192 | 4.3 | 8.7 | 0.00 | 0.01 | 0.01 | 56 | 1008.8 |
| 20260503234019 | 55 | 205 | 4.3 | 10.4 | 0.00 | 0.01 | 0.01 | 56 | 1009.0 |
| 20260503233017 | 54 | 207 | 2.6 | 6.1 | 0.00 | 0.01 | 0.01 | 58 | 1009.1 |
| 20260503232016 | 54 | 247 | 1.7 | 6.1 | 0.00 | 0.01 | 0.01 | 60 | 1009.2 |
| 20260503231037 | 54 | 251 | 1.7 | 7.0 | 0.00 | 0.01 | 0.01 | 61 | 1009.2 |
| 20260503230017 | 54 | 210 | 2.6 | 7.8 | 0.00 | 0.01 | 0.01 | 61 | 1009.2 |
| 20260503225017 | 54 | 198 | 1.7 | 6.1 | 0.01 | 0.01 | 0.01 | 62 | 1009.3 |
| 20260503224037 | 54 | 217 | 3.5 | 7.0 | 0.01 | 0.01 | 0.01 | 62 | 1009.3 |
| 20260503223017 | 54 | 255 | 1.7 | 5.2 | 0.00 | 0.01 | 0.01 | 63 | 1009.4 |
| 20260503222018 | 53 | 238 | 2.6 | 11.3 | 0.00 | 0.01 | 0.01 | 64 | 1009.5 |
| 20260503221038 | 53 | 227 | 3.5 | 9.6 | 0.00 | 0.01 | 0.01 | 65 | 1009.6 |
| 20260503220018 | 53 | 227 | 5.2 | 11.3 | 0.00 | 0.01 | 0.01 | 64 | 1009.5 |
| 20260503215018 | 53 | 200 | 3.5 | 7.8 | 0.00 | 0.01 | 0.01 | 65 | 1009.3 |
| 20260503214039 | 53 | 214 | 4.3 | 10.4 | 0.00 | 0.01 | 0.01 | 64 | 1009.2 |
| 20260503213019 | 53 | 196 | 7.0 | 13.0 | 0.00 | 0.01 | 0.01 | 64 | 1009.0 |
| 20260503212039 | 54 | 199 | 5.2 | 15.6 | 0.00 | 0.01 | 0.01 | 63 | 1008.8 |
| 20260503211019 | 53 | 206 | 6.1 | 11.3 | 0.00 | 0.01 | 0.01 | 63 | 1008.8 |
| 20260503210100 | 53 | 198 | 6.1 | 12.2 | 0.00 | 0.01 | 0.01 | 63 | 1008.9 |
| 20260503205020 | 52 | 190 | 5.2 | 11.3 | 0.00 | 0.01 | 0.01 | 64 | 1009.0 |
| 20260503204019 | 52 | 195 | 5.2 | 8.7 | 0.00 | 0.01 | 0.01 | 64 | 1009.1 |
| 20260503203036 | 52 | 189 | 5.2 | 10.4 | 0.00 | 0.01 | 0.01 | 64 | 1009.2 |
| 20260503202017 | 52 | 189 | 6.1 | 13.9 | 0.00 | 0.01 | 0.01 | 64 | 1009.3 |
| 20260503201037 | 53 | 193 | 6.1 | 10.4 | 0.00 | 0.01 | 0.01 | 64 | 1009.4 |
| 20260503200017 | 53 | 190 | 6.1 | 12.2 | 0.00 | 0.01 | 0.01 | 63 | 1009.5 |
| 20260503195017 | 53 | 198 | 6.1 | 10.4 | 0.00 | 0.01 | 0.01 | 62 | 1009.7 |
| 20260503194037 | 54 | 198 | 6.1 | 12.2 | 0.00 | 0.01 | 0.01 | 61 | 1009.7 |
| 20260503193017 | 55 | 192 | 7.0 | 13.0 | 0.00 | 0.01 | 0.00 | 59 | 1009.9 |
| 20260503192018 | 54 | 187 | 7.8 | 13.9 | 0.00 | 0.01 | 0.00 | 60 | 1010.0 |
| 20260503191018 | 54 | 194 | 7.0 | 11.3 | 0.00 | 0.01 | 0.00 | 58 | 1010.2 |
| 20260503190058 | 53 | 209 | 6.1 | 12.2 | 0.00 | 0.01 | 0.00 | 58 | 1010.3 |
| 20260503185018 | 53 | 194 | 6.1 | 16.5 | 0.00 | 0.01 | 0.00 | 58 | 1010.5 |
| 20260503184019 | 52 | 195 | 6.1 | 13.9 | 0.00 | 0.01 | 0.00 | 58 | 1010.7 |
| 20260503183039 | 53 | 198 | 7.0 | 16.5 | 0.00 | 0.01 | 0.00 | 56 | 1010.9 |
| 20260503182019 | 53 | 202 | 6.1 | 13.9 | 0.00 | 0.00 | 0.00 | 54 | 1010.8 |
| 20260503181019 | 53 | 199 | 6.1 | 12.2 | 0.00 | 0.00 | 0.00 | 52 | 1011.1 |
| 20260503180040 | 53 | 207 | 7.0 | 12.2 | 0.00 | 0.00 | 0.00 | 48 | 1011.0 |
| 20260503175039 | 53 | 185 | 8.7 | 13.9 | 0.00 | 0.00 | 0.00 | 52 | 1011.1 |
| 20260503174036 | 52 | 188 | 7.0 | 16.5 | 0.00 | 0.00 | 0.00 | 54 | 1011.4 |
| 20260503173057 | 51 | 184 | 7.8 | 15.6 | 0.00 | 0.00 | 0.00 | 61 | 1011.5 |
| 20260503172017 | 51 | 186 | 7.0 | 13.0 | 0.00 | 0.00 | 0.00 | 62 | 1011.8 |
| 20260503171017 | 51 | 193 | 5.2 | 9.6 | 0.00 | 0.00 | 0.00 | 59 | 1012.0 |
| 20260503131018 | 46 | 189 | 5.2 | 10.4 | 0.00 | 0.00 | 0.00 | 75 | 1013.1 |
| 20260503081017 | 31 | 331 | 0.0 | 1.7 | 0.00 | 0.00 | 0.00 | 91 | 1013.9 |
| 20260503072018 | 35 | 228 | 0.0 | 2.6 | 0.00 | 0.00 | 0.00 | 85 | 1013.7 |
| 20260503071018 | 35 | 315 | 0.9 | 2.6 | 0.00 | 0.00 | 0.00 | 86 | 1013.7 |
| 20260503055040 | 35 | 326 | 0.0 | 1.7 | 0.00 | 0.00 | 0.00 | 84 | 1014.1 |
| 20260503054016 | 35 | 264 | 0.0 | 1.7 | 0.00 | 0.00 | 0.00 | 84 | 1014.0 |
| 20260503053037 | 35 | 187 | 0.9 | 2.6 | 0.00 | 0.00 | 0.00 | 84 | 1014.1 |
| 20260503052017 | 35 | 265 | 0.0 | 1.7 | 0.00 | 0.00 | 0.00 | 84 | 1014.2 |
| 20260503051016 | 36 | 303 | 0.0 | 1.7 | 0.00 | 0.00 | 0.00 | 83 | 1014.3 |
| 20260503050017 | 36 | 302 | 0.0 | 0.9 | 0.00 | 0.00 | 0.00 | 85 | 1014.3 |
| 20260503045017 | 36 | 250 | 0.9 | 1.7 | 0.00 | 0.00 | 0.00 | 84 | 1014.4 |
| 20260503044017 | 37 | 181 | 0.9 | 1.7 | 0.00 | 0.00 | 0.00 | 83 | 1014.4 |
| 20260503043058 | 36 | 278 | 0.9 | 1.7 | 0.00 | 0.00 | 0.00 | 84 | 1014.4 |
| 20260503042018 | 36 | 249 | 0.0 | 1.7 | 0.00 | 0.00 | 0.00 | 89 | 1014.5 |
| 20260503041038 | 36 | 345 | 0.0 | 0.9 | 0.00 | 0.00 | 0.00 | 89 | 1014.6 |
| 20260503040018 | 36 | 354 | 0.0 | 1.7 | 0.00 | 0.00 | 0.00 | 90 | 1014.6 |
| 20260503035018 | 36 | 347 | 0.0 | 1.7 | 0.00 | 0.00 | 0.00 | 89 | 1014.6 |
| 20260503034018 | 36 | 346 | 0.0 | 1.7 | 0.00 | 0.00 | 0.00 | 89 | 1014.7 |
| 20260503033019 | 37 | 348 | 0.0 | 1.7 | 0.00 | 0.00 | 0.00 | 87 | 1014.8 |
| 20260503032039 | 38 | 9 | 0.0 | 1.7 | 0.00 | 0.00 | 0.00 | 86 | 1014.8 |
| 20260503031019 | 39 | 49 | 0.0 | 0.9 | 0.00 | 0.00 | 0.00 | 85 | 1014.8 |
| 20260503030040 | 39 | 56 | 0.0 | 0.9 | 0.00 | 0.00 | 0.00 | 84 | 1014.8 |
| 20260503025039 | 39 | 18 | 0.0 | 0.9 | 0.00 | 0.00 | 0.00 | 83 | 1014.9 |
| 20260503024019 | 40 | 67 | 0.0 | 0.9 | 0.00 | 0.00 | 0.00 | 81 | 1014.9 |
| 20260503023039 | 40 | 91 | 0.0 | 0.9 | 0.00 | 0.00 | 0.00 | 80 | 1014.9 |
| 20260503022017 | 40 | 144 | 0.9 | 1.7 | 0.00 | 0.00 | 0.00 | 79 | 1015.0 |
| 20260503021017 | 40 | 135 | 0.9 | 1.7 | 0.00 | 0.00 | 0.00 | 77 | 1015.1 |
| 20260503020017 | 41 | 147 | 0.9 | 2.6 | 0.00 | 0.00 | 0.00 | 75 | 1015.1 |
| 20260503015017 | 41 | 158 | 0.9 | 1.7 | 0.00 | 0.00 | 0.00 | 74 | 1015.1 |
| 20260503014037 | 41 | 201 | 0.9 | 1.7 | 0.00 | 0.00 | 0.00 | 73 | 1015.1 |
| 20260503013038 | 41 | 225 | 0.9 | 1.7 | 0.00 | 0.00 | 0.00 | 71 | 1015.1 |
| 20260503012037 | 41 | 283 | 0.9 | 3.5 | 0.00 | 0.00 | 0.00 | 72 | 1015.1 |
| 20260503011018 | 41 | 294 | 0.0 | 1.7 | 0.00 | 0.00 | 0.00 | 72 | 1015.0 |
| 20260503010019 | 42 | 230 | 1.7 | 4.3 | 0.00 | 0.00 | 0.00 | 72 | 1015.1 |
| 20260503005039 | 42 | 227 | 1.7 | 3.5 | 0.00 | 0.00 | 0.00 | 74 | 1015.0 |
| 20260503004019 | 42 | 301 | 2.6 | 7.0 | 0.00 | 0.00 | 0.00 | 75 | 1015.0 |
| 20260503003039 | 42 | 321 | 0.9 | 3.5 | 0.00 | 0.00 | 0.00 | 76 | 1015.0 |
| 20260503002018 | 42 | 273 | 0.9 | 3.5 | 0.00 | 0.00 | 0.00 | 75 | 1014.9 |